GW0905 Weather Reports


Display with metric or nautical units.
time (UTC)temp
F
wind
direction
speed
MPH
gust
MPH
rain 1hr
in
rain 24hr
in
rain mn
in
humidity
%
barometer
mb
20260906232131 95 211 2.0 7.0 0.00 0.00 0.00 20 1016.2
20260906231625 95 228 3.0 8.0 0.00 0.00 0.00 20 1016.2
20260906231119 95 159 3.0 8.0 0.00 0.00 0.00 19 1016.2
20260906230618 95 232 3.0 7.0 0.00 0.00 0.00 19 1016.2
20260906230320 95 280 1.0 7.0 0.00 0.00 0.00 19 1016.2
20260906230202 95 225 2.0 7.0 0.00 0.00 0.00 19 1016.3
20260906225119 95 201 2.0 5.0 0.00 0.00 0.00 20 1016.3
20260906224619 95 90 3.0 8.0 0.00 0.00 0.00 19 1016.2
20260906224119 95 196 3.0 8.0 0.00 0.00 0.00 20 1016.2
20260906223619 94 306 3.0 8.0 0.00 0.00 0.00 20 1016.3
20260906223119 94 180 2.0 6.0 0.00 0.00 0.00 20 1016.3
20260906222619 94 152 2.0 9.0 0.00 0.00 0.00 19 1016.3
20260906222119 95 214 3.0 9.0 0.00 0.00 0.00 18 1016.4
20260906221844 96 265 3.0 8.0 0.00 0.00 0.00 18 1016.4
20260906221341 96 219 3.0 8.0 0.00 0.00 0.00 19 1016.6
20260906220838 96 221 2.0 8.0 0.00 0.00 0.00 18 1016.5
20260906220115 96 163 1.0 6.0 0.00 0.00 0.00 19 1016.8
20260906215616 96 63 3.0 7.0 0.00 0.00 0.00 19 1016.8
20260906215115 95 63 4.0 9.0 0.00 0.00 0.00 18 1016.9
20260906214615 95 156 4.0 12.0 0.00 0.00 0.00 19 1016.9
20260906214113 95 226 3.0 12.0 0.00 0.00 0.00 20 1017.0
20260906213612 95 207 3.0 8.0 0.00 0.00 0.00 19 1017.1
20260906213113 95 177 4.0 8.0 0.00 0.00 0.00 19 1017.3
20260906212613 96 234 3.0 8.0 0.00 0.00 0.00 18 1017.5
20260906212113 96 261 3.0 8.0 0.00 0.00 0.00 21 1017.3
20260906211613 95 273 4.0 8.0 0.00 0.00 0.00 18 1017.7
20260906211113 95 192 4.0 8.0 0.00 0.00 0.00 18 1017.6
20260906210612 95 205 3.0 8.0 0.00 0.00 0.00 17 1017.7
20260906210108 95 275 2.0 7.0 0.00 0.00 0.00 18 1017.7
20260906205609 94 355 1.0 5.0 0.00 0.00 0.00 17 1017.8
20260906205108 95 331 2.0 6.0 0.00 0.00 0.00 18 1017.9
20260906204608 94 252 2.0 6.0 0.00 0.00 0.00 18 1018.0
20260906204109 94 227 2.0 9.0 0.00 0.00 0.00 18 1017.9
20260906203608 94 263 3.0 9.0 0.00 0.00 0.00 19 1018.2
20260906203109 94 294 2.0 9.0 0.00 0.00 0.00 18 1018.2
20260906202830 94 232 1.0 4.0 0.00 0.00 0.00 20 1018.2
20260906202550 94 272 1.0 4.0 0.00 0.00 0.00 17 1018.3
20260906201608 93 287 2.0 6.0 0.00 0.00 0.00 19 1018.4
20260906201109 93 225 2.0 6.0 0.00 0.00 0.00 19 1018.5
20260906200609 92 69 1.0 6.0 0.00 0.00 0.00 21 1018.4
20260906200334 92 142 1.0 8.0 0.00 0.00 0.00 18 1018.5
20260906195609 92 331 2.0 8.0 0.00 0.00 0.00 18 1018.6
20260906195109 93 251 2.0 6.0 0.00 0.00 0.00 18 1018.6
20260906194826 94 26 2.0 6.0 0.00 0.00 0.00 18 1018.7
20260906194109 94 290 2.0 6.0 0.00 0.00 0.00 18 1018.7
20260906193608 93 328 2.0 6.0 0.00 0.00 0.00 19 1018.9
20260906193108 92 260 2.0 6.0 0.00 0.00 0.00 19 1019.0
20260906192609 92 309 2.0 6.0 0.00 0.00 0.00 18 1019.1
20260906192108 92 22 2.0 6.0 0.00 0.00 0.00 19 1019.1
20260906191819 92 24 3.0 8.0 0.00 0.00 0.00 18 1019.2
20260906191056 92 310 3.0 8.0 0.00 0.00 0.00 18 1019.3
20260906190550 91 5 2.0 5.0 0.00 0.00 0.00 20 1019.5
20260906190308 93 342 2.0 5.0 0.00 0.00 0.00 18 1019.5
20260906185538 93 292 1.0 4.0 0.00 0.00 0.00 21 1019.6
20260906185256 92 292 1.0 5.0 0.00 0.00 0.00 18 1019.7
20260906184525 92 274 3.0 8.0 0.00 0.00 0.00 20 1019.7
20260906184018 91 250 3.0 8.0 0.00 0.00 0.00 22 1019.8
20260906183511 90 211 2.0 8.0 0.00 0.00 0.00 23 1019.8
20260906183006 90 351 1.0 8.0 0.00 0.00 0.00 23 1019.9
20260906182912 90 244 2.0 6.0 0.00 0.00 0.00 24 1020.0
20260906182759 90 144 2.0 6.0 0.00 0.00 0.00 24 1020.0
20260906181448 89 189 2.0 5.0 0.00 0.00 0.00 28 1020.2
20260906180942 89 241 1.0 5.0 0.00 0.00 0.00 27 1020.3
20260906180435 88 213 1.0 3.0 0.00 0.00 0.00 27 1020.5
20260906175930 87 263 1.0 3.0 0.00 0.00 0.00 28 1020.6
20260906175424 86 247 1.0 4.0 0.00 0.00 0.00 29 1020.6
20260906174918 85 51 1.0 4.0 0.00 0.00 0.00 32 1020.6
20260906174413 85 5 1.0 4.0 0.00 0.00 0.00 32 1020.6
20260906173905 85 0 1.0 3.0 0.00 0.00 0.00 30 1020.7
20260906173359 85 38 1.0 3.0 0.00 0.00 0.00 32 1020.7
20260906172853 85 316 1.0 5.0 0.00 0.00 0.00 30 1021.0
20260906172347 85 330 2.0 5.0 0.00 0.00 0.00 31 1020.9
20260906171842 86 66 2.0 7.0 0.00 0.00 0.00 31 1020.9
20260906171337 85 18 2.0 7.0 0.00 0.00 0.00 32 1021.1
20260906171054 85 46 1.0 4.0 0.00 0.00 0.00 32 1021.0
20260906170812 84 41 1.0 4.0 0.00 0.00 0.00 33 1021.0
20260906165818 84 17 1.0 3.0 0.00 0.00 0.00 32 1021.0
20260906165312 83 38 1.0 4.0 0.00 0.00 0.00 35 1021.1
20260906164806 81 10 1.0 4.0 0.00 0.00 0.00 34 1021.2
20260906164300 81 21 1.0 3.0 0.00 0.00 0.00 35 1021.3
20260906163754 80 34 1.0 4.0 0.00 0.00 0.00 38 1021.3
20260906163248 79 355 1.0 4.0 0.00 0.00 0.00 36 1021.2
20260906162742 79 62 2.0 4.0 0.00 0.00 0.00 36 1021.4
20260906162236 79 25 2.0 8.0 0.00 0.00 0.00 37 1021.4
20260906162222 78 0 2.0 6.0 0.00 0.00 0.00 38 1021.3
20260906161224 78 9 1.0 4.0 0.00 0.00 0.00 38 1021.2
20260906160717 78 10 1.0 4.0 0.00 0.00 0.00 39 1021.3
20260906160434 77 335 1.0 4.0 0.00 0.00 0.00 40 1021.3
20260906155705 77 16 2.0 5.0 0.00 0.00 0.00 39 1021.3
20260906155159 77 48 2.0 5.0 0.00 0.00 0.00 38 1021.3
20260906154653 76 47 2.0 4.0 0.00 0.00 0.00 39 1021.2
20260906154148 76 24 2.0 5.0 0.00 0.00 0.00 38 1021.3
20260906153902 76 63 2.0 5.0 0.00 0.00 0.00 39 1021.4
20260906153136 76 355 2.0 4.0 0.00 0.00 0.00 39 1021.2
20260906152852 76 29 2.0 7.0 0.00 0.00 0.00 40 1021.3
20260906152123 76 23 3.0 8.0 0.00 0.00 0.00 38 1021.4
20260906151618 76 0 3.0 8.0 0.00 0.00 0.00 39 1021.3
20260906151111 76 343 3.0 7.0 0.00 0.00 0.00 38 1021.3
20260906150605 75 5 3.0 8.0 0.00 0.00 0.00 39 1021.2
20260906150319 75 350 3.0 8.0 0.00 0.00 0.00 39 1021.2
20260906145554 74 5 3.0 9.0 0.00 0.00 0.00 39 1021.3
20260906145047 74 316 3.0 9.0 0.00 0.00 0.00 39 1021.2
20260906144541 74 331 3.0 8.0 0.00 0.00 0.00 40 1021.2
20260906144036 74 24 3.0 7.0 0.00 0.00 0.00 40 1021.2
20260906143530 73 28 3.0 7.0 0.00 0.00 0.00 40 1021.3
20260906143024 73 350 3.0 7.0 0.00 0.00 0.00 41 1021.2
20260906142518 73 320 2.0 7.0 0.00 0.00 0.00 41 1021.1
20260906142012 73 36 2.0 5.0 0.00 0.00 0.00 42 1021.1
20260906141506 72 38 1.0 5.0 0.00 0.00 0.00 41 1021.0
20260906141000 72 28 1.0 4.0 0.00 0.00 0.00 41 1021.0
20260906140453 72 19 1.0 2.0 0.00 0.00 0.00 41 1020.9
20260906135949 72 355 1.0 5.0 0.00 0.00 0.00 41 1021.0
20260906135442 72 327 1.0 5.0 0.00 0.00 0.00 41 1020.7
20260906134936 71 0 1.0 4.0 0.00 0.00 0.00 42 1020.7
20260906134437 71 64 1.0 4.0 0.00 0.00 0.00 43 1020.9
20260906133933 71 55 1.0 8.0 0.00 0.00 0.00 44 1020.7
20260906133657 71 53 3.0 8.0 0.00 0.00 0.00 43 1020.6
20260906132934 71 57 4.0 8.0 0.00 0.00 0.00 42 1020.5
20260906132654 70 66 4.0 8.0 0.00 0.00 0.00 42 1020.6
20260906131933 70 42 4.0 9.0 0.00 0.00 0.00 41 1020.6
20260906131432 70 54 4.0 9.0 0.00 0.00 0.00 41 1020.6
20260906130930 70 41 2.0 6.0 0.00 0.00 0.00 42 1020.5
20260906130430 70 40 3.0 10.0 0.00 0.00 0.00 41 1020.5
20260906125930 70 26 3.0 10.0 0.00 0.00 0.00 40 1020.4
20260906125430 70 355 3.0 8.0 0.00 0.00 0.00 40 1020.4
20260906125153 70 355 2.0 8.0 0.00 0.00 0.00 40 1020.4
20260906124430 70 20 1.0 4.0 0.00 0.00 0.00 41 1020.4
20260906123930 70 44 2.0 9.0 0.00 0.00 0.00 41 1020.5
20260906123430 70 49 3.0 9.0 0.00 0.00 0.00 41 1020.3
20260906122930 70 47 2.0 6.0 0.00 0.00 0.00 40 1020.2
20260906122429 70 40 1.0 5.0 0.00 0.00 0.00 40 1020.2
20260906121930 70 355 1.0 5.0 0.00 0.00 0.00 40 1020.0
20260906121428 70 343 1.0 5.0 0.00 0.00 0.00 41 1019.9
20260906120927 70 32 0.0 3.0 0.00 0.00 0.00 41 1020.0
20260906120428 70 355 0.0 3.0 0.00 0.00 0.00 42 1020.2
20260906115928 71 341 0.0 3.0 0.00 0.00 0.00 42 1020.2
20260906115649 71 59 0.0 3.0 0.00 0.00 0.00 42 1020.0
20260906114928 71 54 0.0 2.0 0.00 0.00 0.00 41 1019.9
20260906114428 71 0 0.0 2.0 0.00 0.00 0.00 41 1020.0
20260906113927 71 355 0.0 2.0 0.00 0.00 0.00 41 1019.9
20260906113654 71 31 0.0 1.0 0.00 0.00 0.00 40 1020.0
20260906112928 71 324 0.0 1.0 0.00 0.00 0.00 41 1020.0
20260906112427 71 322 0.0 0.0 0.00 0.00 0.00 41 1020.0
20260906111928 71 355 0.0 0.0 0.00 0.00 0.00 41 1019.9
20260906111428 71 355 0.0 0.0 0.00 0.00 0.00 41 1019.9
20260906110928 71 62 0.0 0.0 0.00 0.00 0.00 41 1019.9
20260906110428 72 62 0.0 0.0 0.00 0.00 0.00 40 1019.9
20260906105928 72 62 0.0 2.0 0.00 0.00 0.00 40 1019.9
20260906105650 72 66 1.0 3.0 0.00 0.00 0.00 41 1020.0
20260906104928 72 73 1.0 3.0 0.00 0.00 0.00 41 1020.2
20260906104428 72 55 0.0 2.0 0.00 0.00 0.00 40 1020.0
20260906103927 72 59 0.0 1.0 0.00 0.00 0.00 41 1020.0
20260906103428 72 59 1.0 4.0 0.00 0.00 0.00 40 1020.0
20260906102927 72 40 1.0 4.0 0.00 0.00 0.00 40 1020.0
20260906102428 72 55 1.0 4.0 0.00 0.00 0.00 40 1020.0
20260906101928 72 53 0.0 2.0 0.00 0.00 0.00 40 1020.0
20260906101425 72 52 0.0 1.0 0.00 0.00 0.00 41 1019.9
20260906100926 72 52 0.0 0.0 0.00 0.00 0.00 41 1020.0
20260906100425 72 52 0.0 1.0 0.00 0.00 0.00 42 1019.9
20260906095924 72 51 0.0 3.0 0.00 0.00 0.00 42 1019.9
20260906095418 72 55 0.0 3.0 0.00 0.00 0.00 42 1019.8
20260906095137 73 85 0.0 1.0 0.00 0.00 0.00 43 1019.8
20260906094407 73 85 0.0 1.0 0.00 0.00 0.00 42 1019.8
20260906093901 73 85 0.0 0.0 0.00 0.00 0.00 43 1019.7
20260906093355 73 85 0.0 0.0 0.00 0.00 0.00 43 1019.7
20260906092850 73 85 0.0 0.0 0.00 0.00 0.00 42 1019.7
20260906092343 73 85 0.0 0.0 0.00 0.00 0.00 41 1019.6
20260906091836 73 85 0.0 0.0 0.00 0.00 0.00 42 1019.6
20260906091331 73 85 0.0 1.0 0.00 0.00 0.00 42 1019.5
20260906090824 73 85 0.0 1.0 0.00 0.00 0.00 41 1019.5
20260906090319 73 85 0.0 2.0 0.00 0.00 0.00 42 1019.3
20260906085813 73 85 0.0 2.0 0.00 0.00 0.00 41 1019.6
20260906085307 73 85 0.0 1.0 0.00 0.00 0.00 42 1019.3
20260906084801 73 85 0.0 3.0 0.00 0.00 0.00 41 1019.5
20260906084255 73 85 1.0 3.0 0.00 0.00 0.00 42 1019.5
20260906083749 73 115 1.0 3.0 0.00 0.00 0.00 42 1019.5
20260906083243 73 88 1.0 3.0 0.00 0.00 0.00 41 1019.5
20260906082738 73 87 0.0 2.0 0.00 0.00 0.00 42 1019.7
20260906082231 73 86 0.0 2.0 0.00 0.00 0.00 41 1019.6
20260906081725 73 80 1.0 3.0 0.00 0.00 0.00 42 1019.7
20260906081219 73 93 1.0 3.0 0.00 0.00 0.00 41 1019.7
20260906080713 73 109 0.0 2.0 0.00 0.00 0.00 42 1019.7
20260906080207 73 88 0.0 2.0 0.00 0.00 0.00 42 1019.8
20260906075700 73 88 1.0 3.0 0.00 0.00 0.00 43 1019.7
20260906075154 73 88 1.0 3.0 0.00 0.00 0.00 43 1019.8
20260906074649 73 82 1.0 2.0 0.00 0.00 0.00 44 1019.9
20260906074408 73 107 1.0 2.0 0.00 0.00 0.00 45 1020.0
20260906073636 72 111 1.0 2.0 0.00 0.00 0.00 46 1020.0
20260906073130 73 111 0.0 2.0 0.00 0.00 0.00 45 1019.9
20260906072841 73 96 0.0 2.0 0.00 0.00 0.00 45 1019.9
20260906072342 73 79 0.0 2.0 0.00 0.00 0.00 45 1019.9
20260906071613 73 128 0.0 1.0 0.00 0.00 0.00 44 1020.0
20260906071108 73 128 0.0 1.0 0.00 0.00 0.00 43 1020.0
20260906070600 74 128 0.0 1.0 0.00 0.00 0.00 43 1020.0
20260906070054 74 128 0.0 1.0 0.00 0.00 0.00 42 1019.9
20260906065548 74 128 0.0 1.0 0.00 0.00 0.00 41 1019.9
20260906065043 74 121 1.0 3.0 0.00 0.00 0.00 40 1020.0
20260906064537 74 135 1.0 3.0 0.00 0.00 0.00 41 1020.0
20260906064031 75 133 1.0 3.0 0.00 0.00 0.00 40 1020.0
20260906063525 75 138 1.0 3.0 0.00 0.00 0.00 41 1020.0
20260906063019 75 96 1.0 3.0 0.00 0.00 0.00 39 1020.0
20260906062514 75 96 1.0 3.0 0.00 0.00 0.00 39 1020.2
20260906062006 76 84 1.0 2.0 0.00 0.00 0.00 38 1019.9
20260906061500 76 84 0.0 2.0 0.00 0.00 0.00 38 1019.9
20260906061214 76 84 0.0 2.0 0.00 0.00 0.00 37 1019.9
20260906060449 76 84 0.0 1.0 0.00 0.00 0.00 36 1019.8
20260906055942 77 81 0.0 1.0 0.00 0.00 0.00 36 1019.8
20260906055437 77 0 0.0 0.0 0.00 0.00 0.00 35 1019.8
20260906054930 78 0 0.0 0.0 0.00 0.00 0.00 35 1019.7
20260906054424 78 0 0.0 0.0 0.00 0.00 0.00 34 1019.6
20260906053918 78 0 0.0 2.0 0.00 0.00 0.00 34 1019.6
20260906053907 78 0 0.0 3.0 0.00 0.00 0.00 34 1019.6
20260906052907 79 323 0.0 3.0 0.00 0.00 0.00 33 1019.6
20260906052401 79 327 0.0 2.0 0.00 0.00 0.00 32 1019.5
20260906052118 79 327 1.0 3.0 0.00 0.00 0.00 32 1019.5
20260906051348 79 20 1.0 5.0 0.00 0.00 0.00 32 1019.6
20260906050844 79 321 1.0 5.0 0.00 0.00 0.00 32 1019.5
20260906050336 78 0 1.0 5.0 0.00 0.00 0.00 32 1019.3
20260906045831 78 355 0.0 2.0 0.00 0.00 0.00 32 1019.3
20260906045326 78 77 0.0 4.0 0.00 0.00 0.00 33 1019.3
20260906045038 78 93 1.0 4.0 0.00 0.00 0.00 33 1019.3
20260906044313 78 42 1.0 3.0 0.00 0.00 0.00 33 1019.3
20260906043807 79 333 0.0 3.0 0.00 0.00 0.00 33 1019.3
20260906043521 79 51 1.0 3.0 0.00 0.00 0.00 33 1019.5
20260906042755 79 56 1.0 3.0 0.00 0.00 0.00 33 1019.3
20260906042249 79 76 1.0 3.0 0.00 0.00 0.00 33 1019.5
20260906041743 79 57 1.0 4.0 0.00 0.00 0.00 33 1019.3
20260906041459 79 59 2.0 4.0 0.00 0.00 0.00 33 1019.5
20260906040731 79 63 1.0 4.0 0.00 0.00 0.00 33 1019.5
20260906040224 79 60 1.0 3.0 0.00 0.00 0.00 33 1019.5
20260906035719 80 65 1.0 4.0 0.00 0.00 0.00 33 1019.5
20260906035213 80 65 1.0 4.0 0.00 0.00 0.00 32 1019.6
20260906034706 80 55 1.0 4.0 0.00 0.00 0.00 33 1019.5
20260906034201 80 57 0.0 4.0 0.00 0.00 0.00 32 1019.5
20260906033655 81 50 0.0 1.0 0.00 0.00 0.00 32 1019.3
20260906033149 81 50 0.0 1.0 0.00 0.00 0.00 31 1019.3
20260906032643 81 38 0.0 3.0 0.00 0.00 0.00 31 1019.2
20260906032137 81 16 0.0 3.0 0.00 0.00 0.00 31 1019.1
20260906031631 81 0 0.0 3.0 0.00 0.00 0.00 31 1019.0
20260906031125 82 33 0.0 3.0 0.00 0.00 0.00 32 1018.9
20260906030619 82 29 0.0 3.0 0.00 0.00 0.00 31 1019.0
20260906030338 82 42 0.0 3.0 0.00 0.00 0.00 31 1018.7
20260906025606 82 346 1.0 8.0 0.00 0.00 0.00 32 1018.7
20260906025100 82 346 0.0 8.0 0.00 0.00 0.00 32 1018.7
20260906024555 82 339 0.0 3.0 0.00 0.00 0.00 32 1018.6
20260906024049 83 355 0.0 1.0 0.00 0.00 0.00 32 1018.6
20260906023803 83 355 0.0 3.0 0.00 0.00 0.00 32 1018.6
20260906023037 83 355 0.0 3.0 0.00 0.00 0.00 31 1018.5
20260906022531 83 355 1.0 5.0 0.00 0.00 0.00 31 1018.5
20260906022247 83 348 2.0 5.0 0.00 0.00 0.00 31 1018.3
20260906021520 83 338 1.0 5.0 0.00 0.00 0.00 31 1018.3
20260906021013 84 339 0.0 4.0 0.00 0.00 0.00 31 1018.3
20260906020507 84 309 0.0 4.0 0.00 0.00 0.00 31 1018.3
20260906020001 85 348 0.0 2.0 0.00 0.00 0.00 31 1018.2
20260906015454 85 348 0.0 2.0 0.00 0.00 0.00 31 1018.0
20260906014949 85 348 0.0 4.0 0.00 0.00 0.00 31 1018.0
20260906014443 86 348 1.0 4.0 0.00 0.00 0.00 29 1018.0
20260906013942 86 328 1.0 4.0 0.00 0.00 0.00 29 1017.9
20260906013701 86 323 1.0 5.0 0.00 0.00 0.00 29 1018.0
20260906012939 86 288 1.0 5.0 0.00 0.00 0.00 29 1018.0
20260906012437 87 283 1.0 5.0 0.00 0.00 0.00 28 1017.9
20260906011936 87 313 1.0 3.0 0.00 0.00 0.00 29 1018.0
20260906011437 87 0 1.0 5.0 0.00 0.00 0.00 28 1018.0
20260906010935 87 337 1.0 5.0 0.00 0.00 0.00 28 1018.0
20260906010434 88 5 0.0 4.0 0.00 0.00 0.00 28 1018.0
20260906010156 88 300 1.0 3.0 0.00 0.00 0.00 29 1018.0
20260906005702 88 313 1.0 5.0 0.00 0.00 0.00 28 1017.9
20260906004935 89 319 2.0 5.0 0.00 0.00 0.00 27 1018.2
20260906004925 89 290 2.0 5.0 0.00 0.00 0.00 27 1018.0
20260906004144 89 336 1.0 7.0 0.00 0.00 0.00 27 1018.2
20260906004024 89 333 1.0 4.0 0.00 0.00 0.00 28 1018.2
20260906002935 90 312 2.0 7.0 0.00 0.00 0.00 27 1018.2
20260906002434 90 270 2.0 6.0 0.00 0.00 0.00 26 1018.2
20260906002157 90 313 2.0 7.0 0.00 0.00 0.00 26 1018.0
20260906001434 91 255 2.0 7.0 0.00 0.00 0.00 26 1017.9
20260906000935 91 253 2.0 7.0 0.00 0.00 0.00 26 1017.9
20260906000917 91 261 2.0 6.0 0.00 0.00 0.00 26 1018.0
20260905235935 91 259 1.0 5.0 0.00 0.00 0.00 26 1018.0
20260905235435 92 239 2.0 7.0 0.00 0.00 0.00 25 1017.9
20260905234934 92 303 1.0 7.0 0.00 0.00 0.00 25 1018.0
20260905234435 92 13 1.0 4.0 0.00 0.00 0.00 25 1017.9
20260905233935 92 177 1.0 4.0 0.00 0.00 0.00 24 1017.8
20260905233435 92 254 2.0 5.0 0.00 0.00 0.00 24 1017.8
20260905232935 93 257 2.0 5.0 0.00 0.00 0.00 25 1017.8